| time (UTC) | temp C | wind direction | speed KPH | gust KPH | rain 1hr cm | rain 24hr cm | rain mn cm | humidity % | barometer mb |
| 20260831121535 | 15 | 46 | 1.6 | 6.4 | 0.00 | 0.00 | 0.00 | 54 | 1025.5 |
| 20260831121019 | 16 | 0 | 1.6 | 9.7 | 0.00 | 0.00 | 0.00 | 54 | 1025.4 |
| 20260831120519 | 16 | 0 | 1.6 | 9.7 | 0.00 | 0.00 | 0.00 | 54 | 1025.3 |
| 20260831120051 | 16 | 46 | 1.6 | 9.7 | 0.00 | 0.00 | 0.00 | 54 | 1025.5 |
| 20260831115524 | 16 | 49 | 1.6 | 8.0 | 0.00 | 0.00 | 0.00 | 54 | 1025.6 |
| 20260831115016 | 16 | 0 | 1.6 | 8.0 | 0.00 | 0.00 | 0.00 | 53 | 1025.6 |
| 20260831114534 | 16 | 50 | 3.2 | 9.7 | 0.00 | 0.00 | 0.00 | 53 | 1025.5 |
| 20260831114018 | 16 | 90 | 1.6 | 9.7 | 0.00 | 0.00 | 0.00 | 53 | 1025.5 |
| 20260831113516 | 16 | 88 | 3.2 | 9.7 | 0.00 | 0.00 | 0.00 | 53 | 1025.4 |
| 20260831113032 | 16 | 92 | 1.6 | 9.7 | 0.00 | 0.00 | 0.00 | 53 | 1025.3 |
| 20260831112515 | 16 | 92 | 1.6 | 11.3 | 0.00 | 0.00 | 0.00 | 53 | 1025.5 |
| 20260831112014 | 16 | 94 | 1.6 | 11.3 | 0.00 | 0.00 | 0.00 | 53 | 1025.6 |
| 20260831111535 | 16 | 92 | 1.6 | 11.3 | 0.00 | 0.00 | 0.00 | 53 | 1025.6 |
| 20260831111018 | 16 | 95 | 3.2 | 9.7 | 0.00 | 0.00 | 0.00 | 53 | 1025.6 |
| 20260831110518 | 16 | 96 | 1.6 | 9.7 | 0.00 | 0.00 | 0.00 | 53 | 1025.7 |
| 20260831110035 | 16 | 97 | 1.6 | 9.7 | 0.00 | 0.00 | 0.00 | 53 | 1025.8 |
| 20260831105518 | 16 | 96 | 1.6 | 11.3 | 0.00 | 0.00 | 0.00 | 53 | 1025.6 |
| 20260831105016 | 16 | 96 | 1.6 | 11.3 | 0.00 | 0.00 | 0.00 | 53 | 1025.9 |
| 20260831104531 | 16 | 0 | 1.6 | 9.7 | 0.00 | 0.00 | 0.00 | 53 | 1025.8 |
| 20260831104016 | 16 | 98 | 1.6 | 6.4 | 0.00 | 0.00 | 0.00 | 53 | 1025.9 |
| 20260831103517 | 16 | 97 | 0.0 | 4.8 | 0.00 | 0.00 | 0.00 | 53 | 1025.9 |
| 20260831103032 | 16 | 0 | 0.0 | 4.8 | 0.00 | 0.00 | 0.00 | 53 | 1025.9 |
| 20260831102520 | 16 | 93 | 0.0 | 6.4 | 0.00 | 0.00 | 0.00 | 53 | 1025.8 |
| 20260831102017 | 16 | 0 | 0.0 | 6.4 | 0.00 | 0.00 | 0.00 | 53 | 1026.0 |
| 20260831101533 | 16 | 95 | 1.6 | 6.4 | 0.00 | 0.00 | 0.00 | 53 | 1025.9 |
| 20260831101018 | 16 | 96 | 0.0 | 6.4 | 0.00 | 0.00 | 0.00 | 53 | 1026.1 |
| 20260831100522 | 17 | 91 | 3.2 | 6.4 | 0.00 | 0.00 | 0.00 | 53 | 1026.0 |
| 20260831100038 | 17 | 93 | 1.6 | 6.4 | 0.00 | 0.00 | 0.00 | 53 | 1026.2 |
| 20260831095516 | 17 | 94 | 0.0 | 6.4 | 0.00 | 0.00 | 0.00 | 53 | 1026.2 |
| 20260831095018 | 17 | 94 | 1.6 | 6.4 | 0.00 | 0.00 | 0.00 | 52 | 1026.4 |
| 20260831094539 | 17 | 0 | 0.0 | 3.2 | 0.00 | 0.00 | 0.00 | 52 | 1026.3 |
| 20260831094018 | 17 | 0 | 0.0 | 6.4 | 0.00 | 0.00 | 0.00 | 51 | 1026.4 |
| 20260831093518 | 17 | 96 | 0.0 | 6.4 | 0.00 | 0.00 | 0.00 | 51 | 1026.4 |
| 20260831093033 | 17 | 96 | 1.6 | 6.4 | 0.00 | 0.00 | 0.00 | 51 | 1026.2 |
| 20260831092519 | 17 | 96 | 1.6 | 4.8 | 0.00 | 0.00 | 0.00 | 50 | 1026.1 |
| 20260831092018 | 17 | 98 | 0.0 | 3.2 | 0.00 | 0.00 | 0.00 | 50 | 1026.2 |
| 20260831091543 | 17 | 0 | 0.0 | 0.0 | 0.00 | 0.00 | 0.00 | 49 | 1026.3 |
| 20260831091021 | 18 | 0 | 0.0 | 0.0 | 0.00 | 0.00 | 0.00 | 49 | 1026.1 |
| 20260831090519 | 18 | 0 | 0.0 | 0.0 | 0.00 | 0.00 | 0.00 | 48 | 1026.1 |
| 20260831090039 | 18 | 0 | 0.0 | 0.0 | 0.00 | 0.00 | 0.00 | 49 | 1026.2 |
| 20260831085521 | 18 | 0 | 0.0 | 0.0 | 0.00 | 0.00 | 0.00 | 48 | 1026.2 |
| 20260831085015 | 18 | 0 | 0.0 | 0.0 | 0.00 | 0.00 | 0.00 | 48 | 1026.3 |
| 20260831084535 | 19 | 0 | 0.0 | 0.0 | 0.00 | 0.00 | 0.00 | 48 | 1026.2 |
| 20260831084019 | 19 | 0 | 0.0 | 0.0 | 0.00 | 0.00 | 0.00 | 47 | 1026.2 |
| 20260831083520 | 20 | 0 | 0.0 | 0.0 | 0.00 | 0.00 | 0.00 | 47 | 1026.2 |
| 20260831083038 | 20 | 0 | 0.0 | 0.0 | 0.00 | 0.00 | 0.00 | 47 | 1026.3 |
| 20260831082516 | 20 | 0 | 0.0 | 3.2 | 0.00 | 0.00 | 0.00 | 46 | 1026.3 |
| 20260831082016 | 20 | 0 | 0.0 | 4.8 | 0.00 | 0.00 | 0.00 | 46 | 1026.3 |
| 20260831081534 | 20 | 0 | 0.0 | 4.8 | 0.00 | 0.00 | 0.00 | 45 | 1026.2 |
| 20260831081018 | 20 | 62 | 0.0 | 4.8 | 0.00 | 0.00 | 0.00 | 45 | 1026.3 |
| 20260831080516 | 21 | 61 | 0.0 | 8.0 | 0.00 | 0.00 | 0.00 | 44 | 1026.2 |
| 20260831080040 | 21 | 63 | 1.6 | 8.0 | 0.00 | 0.00 | 0.00 | 44 | 1026.3 |
| 20260831075520 | 21 | 75 | 3.2 | 6.4 | 0.00 | 0.00 | 0.00 | 44 | 1026.2 |
| 20260831075020 | 21 | 68 | 1.6 | 11.3 | 0.00 | 0.00 | 0.00 | 43 | 1026.1 |
| 20260831074536 | 21 | 67 | 3.2 | 11.3 | 0.00 | 0.00 | 0.00 | 43 | 1026.1 |
| 20260831074019 | 21 | 69 | 3.2 | 8.0 | 0.00 | 0.00 | 0.00 | 42 | 1026.0 |
| 20260831073517 | 21 | 70 | 3.2 | 8.0 | 0.00 | 0.00 | 0.00 | 42 | 1026.1 |
| 20260831073038 | 22 | 82 | 3.2 | 6.4 | 0.00 | 0.00 | 0.00 | 42 | 1026.2 |
| 20260831072516 | 22 | 83 | 1.6 | 12.9 | 0.00 | 0.00 | 0.00 | 42 | 1026.2 |
| 20260831072017 | 22 | 85 | 3.2 | 16.1 | 0.00 | 0.00 | 0.00 | 42 | 1026.2 |
| 20260831071542 | 22 | 44 | 4.8 | 16.1 | 0.00 | 0.00 | 0.00 | 42 | 1026.1 |
| 20260831071016 | 22 | 336 | 1.6 | 8.0 | 0.00 | 0.00 | 0.00 | 42 | 1026.2 |
| 20260831070519 | 22 | 355 | 1.6 | 8.0 | 0.00 | 0.00 | 0.00 | 42 | 1026.2 |
| 20260831070035 | 22 | 352 | 1.6 | 9.7 | 0.00 | 0.00 | 0.00 | 42 | 1026.4 |
| 20260831065520 | 22 | 355 | 3.2 | 9.7 | 0.00 | 0.00 | 0.00 | 40 | 1026.2 |
| 20260831065019 | 22 | 355 | 3.2 | 12.9 | 0.00 | 0.00 | 0.00 | 40 | 1026.5 |
| 20260831064531 | 22 | 350 | 3.2 | 12.9 | 0.00 | 0.00 | 0.00 | 42 | 1026.5 |
| 20260831064018 | 22 | 350 | 3.2 | 12.9 | 0.00 | 0.00 | 0.00 | 41 | 1026.6 |
| 20260831063518 | 22 | 350 | 4.8 | 12.9 | 0.00 | 0.00 | 0.00 | 41 | 1026.8 |
| 20260831063034 | 22 | 339 | 4.8 | 9.7 | 0.00 | 0.00 | 0.00 | 41 | 1026.8 |
| 20260831062518 | 22 | 336 | 4.8 | 9.7 | 0.00 | 0.00 | 0.00 | 41 | 1027.0 |
| 20260831062022 | 23 | 315 | 1.6 | 9.7 | 0.00 | 0.00 | 0.00 | 41 | 1027.0 |
| 20260831061535 | 23 | 346 | 4.8 | 12.9 | 0.00 | 0.00 | 0.00 | 41 | 1027.0 |
| 20260831061019 | 23 | 60 | 3.2 | 12.9 | 0.00 | 0.00 | 0.00 | 40 | 1027.2 |
| 20260831060517 | 23 | 57 | 4.8 | 16.1 | 0.00 | 0.00 | 0.00 | 37 | 1027.2 |
| 20260831060040 | 23 | 101 | 4.8 | 16.1 | 0.00 | 0.00 | 0.00 | 38 | 1027.1 |
| 20260831055521 | 23 | 53 | 4.8 | 16.1 | 0.00 | 0.00 | 0.00 | 36 | 1027.2 |
| 20260831055018 | 23 | 28 | 3.2 | 12.9 | 0.00 | 0.00 | 0.00 | 37 | 1027.2 |
| 20260831054535 | 23 | 348 | 4.8 | 12.9 | 0.00 | 0.00 | 0.00 | 37 | 1027.2 |
| 20260831054023 | 23 | 28 | 4.8 | 17.7 | 0.00 | 0.00 | 0.00 | 38 | 1027.3 |
| 20260831053516 | 23 | 351 | 3.2 | 17.7 | 0.00 | 0.00 | 0.00 | 38 | 1027.2 |
| 20260831053034 | 23 | 92 | 4.8 | 14.5 | 0.00 | 0.00 | 0.00 | 38 | 1027.3 |
| 20260831052521 | 23 | 150 | 4.8 | 14.5 | 0.00 | 0.00 | 0.00 | 37 | 1027.3 |
| 20260831052018 | 23 | 33 | 4.8 | 14.5 | 0.00 | 0.00 | 0.00 | 39 | 1027.4 |
| 20260831051550 | 23 | 38 | 4.8 | 11.3 | 0.00 | 0.00 | 0.00 | 39 | 1027.6 |
| 20260831051016 | 23 | 30 | 4.8 | 14.5 | 0.00 | 0.00 | 0.00 | 38 | 1027.5 |
| 20260831050519 | 23 | 63 | 4.8 | 14.5 | 0.00 | 0.00 | 0.00 | 37 | 1027.7 |
| 20260831050036 | 23 | 32 | 3.2 | 16.1 | 0.00 | 0.00 | 0.00 | 37 | 1027.8 |
| 20260831045519 | 23 | 355 | 4.8 | 16.1 | 0.00 | 0.00 | 0.00 | 37 | 1027.8 |
| 20260831045019 | 23 | 79 | 3.2 | 17.7 | 0.00 | 0.00 | 0.00 | 37 | 1027.8 |
| 20260831044537 | 23 | 85 | 6.4 | 17.7 | 0.00 | 0.00 | 0.00 | 36 | 1027.9 |
| 20260831044016 | 23 | 29 | 3.2 | 9.7 | 0.00 | 0.00 | 0.00 | 37 | 1027.9 |
| 20260831043518 | 23 | 27 | 3.2 | 12.9 | 0.00 | 0.00 | 0.00 | 37 | 1027.9 |
| 20260831043034 | 23 | 28 | 3.2 | 12.9 | 0.00 | 0.00 | 0.00 | 35 | 1028.1 |
| 20260831042519 | 23 | 29 | 6.4 | 14.5 | 0.00 | 0.00 | 0.00 | 35 | 1028.3 |
| 20260831042017 | 23 | 28 | 4.8 | 14.5 | 0.00 | 0.00 | 0.00 | 36 | 1028.4 |
| 20260831041534 | 23 | 22 | 4.8 | 16.1 | 0.00 | 0.00 | 0.00 | 36 | 1028.4 |
| 20260831041019 | 23 | 355 | 4.8 | 16.1 | 0.00 | 0.00 | 0.00 | 37 | 1028.3 |
| 20260831040518 | 23 | 360 | 6.4 | 16.1 | 0.00 | 0.00 | 0.00 | 37 | 1028.4 |
| 20260831040037 | 23 | 335 | 3.2 | 14.5 | 0.00 | 0.00 | 0.00 | 38 | 1028.5 |
| 20260831035520 | 23 | 339 | 4.8 | 14.5 | 0.00 | 0.00 | 0.00 | 39 | 1028.5 |
| 20260831035020 | 23 | 340 | 4.8 | 14.5 | 0.00 | 0.00 | 0.00 | 38 | 1028.6 |
| 20260831034542 | 23 | 341 | 3.2 | 14.5 | 0.00 | 0.00 | 0.00 | 37 | 1029.0 |
| 20260831034019 | 23 | 334 | 3.2 | 12.9 | 0.00 | 0.00 | 0.00 | 38 | 1029.0 |
| 20260831033518 | 23 | 338 | 3.2 | 12.9 | 0.00 | 0.00 | 0.00 | 40 | 1029.1 |
| 20260831033035 | 23 | 340 | 4.8 | 14.5 | 0.00 | 0.00 | 0.00 | 39 | 1029.2 |
| 20260831032516 | 23 | 338 | 3.2 | 14.5 | 0.00 | 0.00 | 0.00 | 40 | 1029.4 |
| 20260831032016 | 23 | 333 | 4.8 | 14.5 | 0.00 | 0.00 | 0.00 | 39 | 1029.6 |
| 20260831031536 | 23 | 348 | 3.2 | 14.5 | 0.00 | 0.00 | 0.00 | 40 | 1029.6 |
| 20260831031019 | 22 | 360 | 3.2 | 14.5 | 0.00 | 0.00 | 0.00 | 41 | 1029.8 |
| 20260831030518 | 22 | 22 | 3.2 | 14.5 | 0.00 | 0.00 | 0.00 | 42 | 1029.9 |
| 20260831030035 | 22 | 26 | 4.8 | 14.5 | 0.00 | 0.00 | 0.00 | 45 | 1030.0 |
| 20260831025518 | 22 | 26 | 3.2 | 12.9 | 0.00 | 0.00 | 0.00 | 45 | 1030.1 |
| 20260831025015 | 22 | 355 | 3.2 | 12.9 | 0.00 | 0.00 | 0.00 | 46 | 1030.2 |
| 20260831024536 | 22 | 355 | 3.2 | 9.7 | 0.00 | 0.00 | 0.00 | 47 | 1030.3 |
| 20260831024020 | 22 | 355 | 3.2 | 9.7 | 0.00 | 0.00 | 0.00 | 46 | 1030.5 |
| 20260831023520 | 22 | 355 | 4.8 | 9.7 | 0.00 | 0.00 | 0.00 | 46 | 1030.6 |
| 20260831023035 | 22 | 360 | 3.2 | 16.1 | 0.00 | 0.00 | 0.00 | 46 | 1030.7 |
| 20260831022516 | 22 | 17 | 4.8 | 16.1 | 0.00 | 0.00 | 0.00 | 45 | 1030.8 |
| 20260831022016 | 22 | 30 | 6.4 | 16.1 | 0.00 | 0.00 | 0.00 | 44 | 1031.0 |
| 20260831021534 | 21 | 302 | 4.8 | 14.5 | 0.00 | 0.00 | 0.00 | 47 | 1031.0 |
| 20260831021020 | 21 | 205 | 3.2 | 8.0 | 0.00 | 0.00 | 0.00 | 50 | 1031.0 |
| 20260831020516 | 21 | 205 | 3.2 | 8.0 | 0.00 | 0.00 | 0.00 | 51 | 1031.1 |
| 20260831020035 | 21 | 195 | 0.0 | 8.0 | 0.00 | 0.00 | 0.00 | 56 | 1031.1 |
| 20260831015518 | 20 | 195 | 0.0 | 8.0 | 0.00 | 0.00 | 0.00 | 56 | 1031.1 |
| 20260831015018 | 20 | 0 | 0.0 | 6.4 | 0.00 | 0.00 | 0.00 | 58 | 1031.2 |
| 20260831014537 | 20 | 192 | 1.6 | 6.4 | 0.00 | 0.00 | 0.00 | 58 | 1031.4 |
| 20260831014020 | 20 | 192 | 1.6 | 8.0 | 0.00 | 0.00 | 0.00 | 59 | 1031.4 |
| 20260831013519 | 19 | 191 | 1.6 | 8.0 | 0.00 | 0.00 | 0.00 | 61 | 1031.5 |
| 20260831013033 | 19 | 190 | 1.6 | 4.8 | 0.00 | 0.00 | 0.00 | 62 | 1031.5 |
| 20260831012519 | 18 | 190 | 0.0 | 6.4 | 0.00 | 0.00 | 0.00 | 64 | 1031.7 |
| 20260831012018 | 18 | 190 | 1.6 | 6.4 | 0.00 | 0.00 | 0.00 | 65 | 1031.7 |
| 20260831011543 | 18 | 190 | 3.2 | 6.4 | 0.00 | 0.00 | 0.00 | 66 | 1031.7 |
| 20260831011015 | 18 | 0 | 0.0 | 4.8 | 0.00 | 0.00 | 0.00 | 68 | 1031.6 |
| 20260831010519 | 17 | 0 | 0.0 | 6.4 | 0.00 | 0.00 | 0.00 | 68 | 1031.7 |
| 20260831010042 | 17 | 184 | 1.6 | 6.4 | 0.00 | 0.00 | 0.00 | 69 | 1031.8 |
| 20260831005520 | 17 | 185 | 1.6 | 6.4 | 0.00 | 0.00 | 0.00 | 70 | 1031.7 |
| 20260831005019 | 17 | 0 | 0.0 | 4.8 | 0.00 | 0.00 | 0.00 | 71 | 1031.8 |
| 20260831004532 | 16 | 184 | 0.0 | 4.8 | 0.00 | 0.00 | 0.00 | 72 | 1031.9 |
| 20260831004023 | 16 | 184 | 0.0 | 4.8 | 0.00 | 0.00 | 0.00 | 74 | 1031.8 |
| 20260831003520 | 16 | 184 | 1.6 | 4.8 | 0.00 | 0.00 | 0.00 | 75 | 1031.9 |
| 20260831003037 | 15 | 0 | 1.6 | 4.8 | 0.00 | 0.00 | 0.00 | 77 | 1031.9 |
| 20260831002518 | 15 | 184 | 1.6 | 4.8 | 0.00 | 0.00 | 0.00 | 79 | 1031.9 |
| 20260831002018 | 15 | 184 | 0.0 | 4.8 | 0.00 | 0.00 | 0.00 | 80 | 1031.9 |
| 20260831001537 | 15 | 184 | 0.0 | 4.8 | 0.00 | 0.00 | 0.00 | 82 | 1031.9 |
| 20260831001021 | 14 | 184 | 1.6 | 4.8 | 0.00 | 0.00 | 0.00 | 83 | 1031.9 |
| 20260831000519 | 14 | 0 | 1.6 | 4.8 | 0.00 | 0.00 | 0.00 | 84 | 1031.9 |
| 20260831000034 | 13 | 190 | 0.0 | 4.8 | 0.00 | 0.00 | 0.00 | 86 | 1032.0 |
| 20260830235519 | 13 | 0 | 0.0 | 3.2 | 0.00 | 0.00 | 0.00 | 87 | 1032.1 |
| 20260830235016 | 13 | 0 | 0.0 | 1.6 | 0.00 | 0.00 | 0.00 | 88 | 1032.0 |
| 20260830234541 | 13 | 0 | 0.0 | 3.2 | 0.00 | 0.00 | 0.00 | 88 | 1032.0 |
| 20260830234016 | 12 | 0 | 0.0 | 3.2 | 0.00 | 0.00 | 0.00 | 88 | 1032.1 |
| 20260830233518 | 12 | 0 | 0.0 | 3.2 | 0.00 | 0.00 | 0.00 | 89 | 1032.1 |
| 20260830233035 | 12 | 0 | 0.0 | 3.2 | 0.00 | 0.00 | 0.00 | 89 | 1032.2 |
| 20260830232516 | 12 | 0 | 0.0 | 3.2 | 0.00 | 0.00 | 0.00 | 89 | 1032.2 |
| 20260830232018 | 12 | 0 | 0.0 | 4.8 | 0.00 | 0.00 | 0.00 | 89 | 1032.2 |
| 20260830231536 | 12 | 193 | 0.0 | 4.8 | 0.00 | 0.00 | 0.00 | 89 | 1032.3 |
| 20260830231021 | 11 | 193 | 0.0 | 3.2 | 0.00 | 0.00 | 0.00 | 89 | 1032.2 |
| 20260830230519 | 11 | 0 | 0.0 | 4.8 | 0.00 | 0.00 | 0.00 | 89 | 1032.3 |
| 20260830230033 | 11 | 0 | 0.0 | 4.8 | 0.00 | 0.00 | 0.00 | 89 | 1032.2 |
| 20260830225516 | 11 | 0 | 0.0 | 0.0 | 0.00 | 0.00 | 0.00 | 90 | 1032.3 |
| 20260830225022 | 10 | 0 | 0.0 | 0.0 | 0.00 | 0.00 | 0.00 | 89 | 1032.3 |
| 20260830224535 | 10 | 0 | 0.0 | 0.0 | 0.00 | 0.00 | 0.00 | 89 | 1032.3 |
| 20260830224019 | 10 | 0 | 0.0 | 0.0 | 0.00 | 0.00 | 0.00 | 89 | 1032.2 |
| 20260830223517 | 9 | 0 | 0.0 | 0.0 | 0.00 | 0.00 | 0.00 | 89 | 1032.2 |
| 20260830223032 | 9 | 0 | 0.0 | 0.0 | 0.00 | 0.00 | 0.00 | 89 | 1032.2 |
| 20260830222516 | 8 | 0 | 0.0 | 0.0 | 0.00 | 0.00 | 0.00 | 89 | 1032.2 |
| 20260830222015 | 8 | 0 | 0.0 | 0.0 | 0.00 | 0.00 | 0.00 | 89 | 1032.3 |
| 20260830221545 | 7 | 0 | 0.0 | 0.0 | 0.00 | 0.00 | 0.00 | 88 | 1032.3 |
| 20260830221020 | 7 | 0 | 0.0 | 0.0 | 0.00 | 0.00 | 0.00 | 88 | 1032.2 |
| 20260830220516 | 6 | 0 | 0.0 | 0.0 | 0.00 | 0.00 | 0.00 | 88 | 1032.1 |
| 20260830220035 | 6 | 0 | 0.0 | 0.0 | 0.00 | 0.00 | 0.00 | 88 | 1032.1 |
| 20260830215522 | 6 | 0 | 0.0 | 0.0 | 0.00 | 0.00 | 0.00 | 87 | 1032.0 |
| 20260830215016 | 6 | 0 | 0.0 | 0.0 | 0.00 | 0.00 | 0.00 | 87 | 1031.9 |
| 20260830214532 | 6 | 0 | 0.0 | 0.0 | 0.00 | 0.00 | 0.00 | 87 | 1031.9 |
| 20260830214021 | 6 | 0 | 0.0 | 0.0 | 0.00 | 0.00 | 0.00 | 86 | 1031.9 |
| 20260830213520 | 6 | 0 | 0.0 | 0.0 | 0.00 | 0.00 | 0.00 | 87 | 1031.9 |
| 20260830213032 | 6 | 0 | 0.0 | 0.0 | 0.00 | 0.00 | 0.00 | 86 | 1032.0 |
| 20260830212519 | 6 | 0 | 0.0 | 0.0 | 0.00 | 0.00 | 0.00 | 86 | 1031.9 |
| 20260830212016 | 6 | 0 | 0.0 | 0.0 | 0.00 | 0.00 | 0.00 | 86 | 1031.8 |
| 20260830211531 | 6 | 0 | 0.0 | 0.0 | 0.00 | 0.00 | 0.00 | 86 | 1031.8 |
| 20260830211018 | 6 | 0 | 0.0 | 0.0 | 0.00 | 0.00 | 0.00 | 86 | 1031.8 |
| 20260830210516 | 6 | 0 | 0.0 | 0.0 | 0.00 | 0.00 | 0.00 | 86 | 1031.8 |
| 20260830210036 | 6 | 0 | 0.0 | 0.0 | 0.00 | 0.00 | 0.00 | 86 | 1031.9 |
| 20260830205515 | 6 | 0 | 0.0 | 0.0 | 0.00 | 0.00 | 0.00 | 86 | 1032.0 |
| 20260830205015 | 6 | 0 | 0.0 | 3.2 | 0.00 | 0.00 | 0.00 | 86 | 1032.1 |
| 20260830204533 | 6 | 0 | 0.0 | 3.2 | 0.00 | 0.00 | 0.00 | 86 | 1032.1 |
| 20260830204019 | 5 | 0 | 0.0 | 4.8 | 0.00 | 0.00 | 0.00 | 86 | 1031.9 |
| 20260830203519 | 5 | 207 | 1.6 | 4.8 | 0.00 | 0.00 | 0.00 | 86 | 1031.8 |
| 20260830203034 | 5 | 0 | 0.0 | 0.0 | 0.00 | 0.00 | 0.00 | 86 | 1031.6 |
| 20260830202519 | 6 | 0 | 0.0 | 0.0 | 0.00 | 0.00 | 0.00 | 85 | 1031.6 |
| 20260830202017 | 5 | 0 | 0.0 | 1.6 | 0.00 | 0.00 | 0.00 | 85 | 1031.7 |
| 20260830201533 | 6 | 0 | 0.0 | 3.2 | 0.00 | 0.00 | 0.00 | 85 | 1031.5 |
| 20260830201016 | 5 | 0 | 0.0 | 3.2 | 0.00 | 0.00 | 0.00 | 85 | 1031.5 |
| 20260830200515 | 5 | 0 | 0.0 | 0.0 | 0.00 | 0.00 | 0.00 | 85 | 1031.5 |
| 20260830200044 | 5 | 0 | 0.0 | 0.0 | 0.00 | 0.00 | 0.00 | 85 | 1031.6 |
| 20260830195518 | 5 | 0 | 0.0 | 0.0 | 0.00 | 0.00 | 0.00 | 85 | 1031.5 |
| 20260830195020 | 6 | 0 | 0.0 | 0.0 | 0.00 | 0.00 | 0.00 | 85 | 1031.5 |
| 20260830194537 | 5 | 0 | 0.0 | 0.0 | 0.00 | 0.00 | 0.00 | 85 | 1031.4 |
| 20260830194016 | 6 | 0 | 0.0 | 0.0 | 0.00 | 0.00 | 0.00 | 85 | 1031.4 |
| 20260830193518 | 6 | 0 | 0.0 | 0.0 | 0.00 | 0.00 | 0.00 | 85 | 1031.4 |
| 20260830193032 | 6 | 0 | 0.0 | 0.0 | 0.00 | 0.00 | 0.00 | 85 | 1031.3 |
| 20260830192522 | 6 | 0 | 0.0 | 0.0 | 0.00 | 0.00 | 0.00 | 85 | 1031.3 |
| 20260830192018 | 6 | 0 | 0.0 | 0.0 | 0.00 | 0.00 | 0.00 | 84 | 1031.2 |
| 20260830191534 | 6 | 0 | 0.0 | 0.0 | 0.00 | 0.00 | 0.00 | 84 | 1031.3 |
| 20260830191018 | 6 | 0 | 0.0 | 0.0 | 0.00 | 0.00 | 0.00 | 84 | 1031.3 |
| 20260830190515 | 6 | 0 | 0.0 | 0.0 | 0.00 | 0.00 | 0.00 | 85 | 1031.3 |
| 20260830190043 | 6 | 0 | 0.0 | 0.0 | 0.00 | 0.00 | 0.00 | 85 | 1031.4 |
| 20260830185519 | 6 | 0 | 0.0 | 0.0 | 0.00 | 0.00 | 0.00 | 84 | 1031.5 |
| 20260830185018 | 6 | 0 | 0.0 | 0.0 | 0.00 | 0.00 | 0.00 | 84 | 1031.5 |
| 20260830184533 | 6 | 0 | 0.0 | 0.0 | 0.00 | 0.00 | 0.00 | 84 | 1031.5 |
| 20260830184019 | 6 | 0 | 0.0 | 0.0 | 0.00 | 0.00 | 0.00 | 84 | 1031.5 |
| 20260830183520 | 6 | 0 | 0.0 | 0.0 | 0.00 | 0.00 | 0.00 | 84 | 1031.6 |
| 20260830183038 | 6 | 0 | 0.0 | 0.0 | 0.00 | 0.00 | 0.00 | 84 | 1031.5 |
| 20260830182519 | 6 | 0 | 0.0 | 0.0 | 0.00 | 0.00 | 0.00 | 84 | 1031.6 |
| 20260830182017 | 6 | 0 | 0.0 | 0.0 | 0.00 | 0.00 | 0.00 | 84 | 1031.7 |
| 20260830181534 | 6 | 0 | 0.0 | 0.0 | 0.00 | 0.00 | 0.00 | 84 | 1031.7 |
| 20260830181017 | 6 | 0 | 0.0 | 0.0 | 0.00 | 0.00 | 0.00 | 84 | 1031.7 |
| 20260830180517 | 6 | 0 | 0.0 | 0.0 | 0.00 | 0.00 | 0.00 | 84 | 1031.7 |
| 20260830180034 | 6 | 0 | 0.0 | 0.0 | 0.00 | 0.00 | 0.00 | 83 | 1031.9 |
| 20260830175515 | 6 | 0 | 0.0 | 0.0 | 0.00 | 0.00 | 0.00 | 84 | 1031.9 |
| 20260830175017 | 6 | 0 | 0.0 | 0.0 | 0.00 | 0.00 | 0.00 | 84 | 1031.9 |
| 20260830174541 | 6 | 0 | 0.0 | 0.0 | 0.00 | 0.00 | 0.00 | 84 | 1031.9 |
| 20260830174020 | 6 | 0 | 0.0 | 0.0 | 0.00 | 0.00 | 0.00 | 83 | 1031.9 |
| 20260830173518 | 6 | 0 | 0.0 | 0.0 | 0.00 | 0.00 | 0.00 | 83 | 1032.0 |
| 20260830173034 | 6 | 0 | 0.0 | 0.0 | 0.00 | 0.00 | 0.00 | 83 | 1032.0 |
| 20260830172520 | 6 | 0 | 0.0 | 0.0 | 0.00 | 0.00 | 0.00 | 83 | 1032.1 |
| 20260830172019 | 6 | 0 | 0.0 | 0.0 | 0.00 | 0.00 | 0.00 | 83 | 1032.2 |
| 20260830171534 | 6 | 0 | 0.0 | 0.0 | 0.00 | 0.00 | 0.00 | 83 | 1032.1 |
| 20260830171020 | 6 | 0 | 0.0 | 0.0 | 0.00 | 0.00 | 0.00 | 83 | 1032.3 |
| 20260830170520 | 6 | 0 | 0.0 | 0.0 | 0.00 | 0.00 | 0.00 | 83 | 1032.1 |
| 20260830170035 | 6 | 0 | 0.0 | 0.0 | 0.00 | 0.00 | 0.00 | 82 | 1032.2 |
| 20260830165518 | 6 | 0 | 0.0 | 0.0 | 0.00 | 0.00 | 0.00 | 82 | 1032.4 |
| 20260830165015 | 6 | 0 | 0.0 | 0.0 | 0.00 | 0.00 | 0.00 | 82 | 1032.5 |
| 20260830164534 | 6 | 0 | 0.0 | 0.0 | 0.00 | 0.00 | 0.00 | 82 | 1032.4 |
| 20260830164015 | 6 | 0 | 0.0 | 0.0 | 0.00 | 0.00 | 0.00 | 81 | 1032.5 |
| 20260830163515 | 6 | 0 | 0.0 | 0.0 | 0.00 | 0.00 | 0.00 | 81 | 1032.5 |
| 20260830163036 | 6 | 0 | 0.0 | 0.0 | 0.00 | 0.00 | 0.00 | 81 | 1032.6 |
| 20260830162519 | 6 | 0 | 0.0 | 0.0 | 0.00 | 0.00 | 0.00 | 81 | 1032.6 |
| 20260830162019 | 7 | 0 | 0.0 | 1.6 | 0.00 | 0.00 | 0.00 | 81 | 1032.7 |
| 20260830161532 | 7 | 0 | 0.0 | 1.6 | 0.00 | 0.00 | 0.00 | 81 | 1032.8 |
| 20260830161018 | 7 | 0 | 0.0 | 1.6 | 0.00 | 0.00 | 0.00 | 81 | 1032.8 |
| 20260830160517 | 7 | 0 | 0.0 | 0.0 | 0.00 | 0.00 | 0.00 | 81 | 1032.9 |
| 20260830160041 | 7 | 0 | 0.0 | 0.0 | 0.00 | 0.00 | 0.00 | 81 | 1032.9 |
| 20260830155516 | 7 | 0 | 0.0 | 0.0 | 0.00 | 0.00 | 0.00 | 81 | 1032.8 |
| 20260830155017 | 7 | 0 | 0.0 | 0.0 | 0.00 | 0.00 | 0.00 | 80 | 1032.9 |
| 20260830154532 | 7 | 0 | 0.0 | 0.0 | 0.00 | 0.00 | 0.00 | 80 | 1033.0 |
| 20260830154023 | 7 | 0 | 0.0 | 0.0 | 0.00 | 0.00 | 0.00 | 80 | 1032.8 |
| 20260830153521 | 7 | 0 | 0.0 | 0.0 | 0.00 | 0.00 | 0.00 | 80 | 1032.9 |
| 20260830153036 | 7 | 0 | 0.0 | 1.6 | 0.00 | 0.00 | 0.00 | 80 | 1033.0 |
| 20260830152519 | 7 | 0 | 0.0 | 1.6 | 0.00 | 0.00 | 0.00 | 80 | 1033.0 |
| 20260830152019 | 7 | 0 | 0.0 | 1.6 | 0.00 | 0.00 | 0.00 | 79 | 1033.0 |
| 20260830151534 | 7 | 0 | 0.0 | 0.0 | 0.00 | 0.00 | 0.00 | 79 | 1033.2 |
| 20260830151019 | 7 | 0 | 0.0 | 0.0 | 0.00 | 0.00 | 0.00 | 79 | 1033.2 |
| 20260830150517 | 7 | 0 | 0.0 | 0.0 | 0.00 | 0.00 | 0.00 | 79 | 1033.3 |
| 20260830150035 | 7 | 0 | 0.0 | 0.0 | 0.00 | 0.00 | 0.00 | 79 | 1033.4 |
| 20260830145516 | 7 | 0 | 0.0 | 0.0 | 0.00 | 0.00 | 0.00 | 79 | 1033.3 |
| 20260830145016 | 8 | 0 | 0.0 | 0.0 | 0.00 | 0.00 | 0.00 | 79 | 1033.3 |
| 20260830144533 | 8 | 0 | 0.0 | 0.0 | 0.00 | 0.00 | 0.00 | 79 | 1033.5 |
| 20260830144018 | 8 | 0 | 0.0 | 0.0 | 0.00 | 0.00 | 0.00 | 79 | 1033.4 |
| 20260830143524 | 8 | 0 | 0.0 | 0.0 | 0.00 | 0.00 | 0.00 | 79 | 1033.4 |
| 20260830143036 | 8 | 0 | 0.0 | 0.0 | 0.00 | 0.00 | 0.00 | 79 | 1033.4 |
| 20260830142521 | 8 | 0 | 0.0 | 1.6 | 0.00 | 0.00 | 0.00 | 78 | 1033.4 |
| 20260830142019 | 8 | 0 | 0.0 | 1.6 | 0.00 | 0.00 | 0.00 | 78 | 1033.5 |
| 20260830141535 | 8 | 0 | 0.0 | 1.6 | 0.00 | 0.00 | 0.00 | 78 | 1033.8 |
| 20260830141018 | 8 | 0 | 0.0 | 1.6 | 0.00 | 0.00 | 0.00 | 78 | 1033.8 |
| 20260830140518 | 8 | 0 | 0.0 | 1.6 | 0.00 | 0.00 | 0.00 | 77 | 1033.9 |
| 20260830140033 | 8 | 0 | 0.0 | 0.0 | 0.00 | 0.00 | 0.00 | 77 | 1033.9 |
| 20260830135516 | 8 | 0 | 0.0 | 1.6 | 0.00 | 0.00 | 0.00 | 77 | 1034.0 |
| 20260830135020 | 8 | 0 | 0.0 | 1.6 | 0.00 | 0.00 | 0.00 | 76 | 1034.1 |
| 20260830134540 | 8 | 0 | 0.0 | 0.0 | 0.00 | 0.00 | 0.00 | 76 | 1034.1 |
| 20260830134019 | 8 | 0 | 0.0 | 0.0 | 0.00 | 0.00 | 0.00 | 76 | 1034.0 |
| 20260830133517 | 8 | 0 | 0.0 | 0.0 | 0.00 | 0.00 | 0.00 | 76 | 1034.1 |
| 20260830133034 | 9 | 0 | 0.0 | 0.0 | 0.00 | 0.00 | 0.00 | 76 | 1033.9 |
| 20260830132516 | 9 | 0 | 0.0 | 0.0 | 0.00 | 0.00 | 0.00 | 75 | 1033.9 |
| 20260830132015 | 9 | 0 | 0.0 | 0.0 | 0.00 | 0.00 | 0.00 | 75 | 1033.9 |
| 20260830131534 | 9 | 0 | 0.0 | 0.0 | 0.00 | 0.00 | 0.00 | 75 | 1034.0 |
| 20260830131019 | 9 | 0 | 0.0 | 0.0 | 0.00 | 0.00 | 0.00 | 75 | 1034.0 |
| 20260830130518 | 9 | 0 | 0.0 | 0.0 | 0.00 | 0.00 | 0.00 | 75 | 1034.0 |
| 20260830130041 | 9 | 0 | 0.0 | 1.6 | 0.00 | 0.00 | 0.00 | 75 | 1033.8 |
| 20260830125519 | 10 | 0 | 0.0 | 1.6 | 0.00 | 0.00 | 0.00 | 74 | 1033.9 |
| 20260830125019 | 10 | 0 | 0.0 | 1.6 | 0.00 | 0.00 | 0.00 | 74 | 1033.8 |
| 20260830124533 | 10 | 0 | 0.0 | 1.6 | 0.00 | 0.00 | 0.00 | 74 | 1033.8 |
| 20260830124017 | 10 | 0 | 0.0 | 1.6 | 0.00 | 0.00 | 0.00 | 74 | 1033.8 |
| 20260830123518 | 10 | 0 | 0.0 | 0.0 | 0.00 | 0.00 | 0.00 | 73 | 1033.8 |
| 20260830123034 | 10 | 0 | 0.0 | 0.0 | 0.00 | 0.00 | 0.00 | 73 | 1033.8 |
| 20260830122515 | 10 | 0 | 0.0 | 0.0 | 0.00 | 0.00 | 0.00 | 73 | 1033.7 |
| 20260830122016 | 10 | 0 | 0.0 | 0.0 | 0.00 | 0.00 | 0.00 | 73 | 1033.6 |